| time (UTC) | temp F | wind direction | speed MPH | gust MPH | rain 1hr in | rain 24hr in | rain mn in | humidity % | barometer mb |
| 20260901162659 | 86 | 84 | 3.0 | 6.0 | 0.00 | 0.83 | 0.01 | 83 | 1016.9 |
| 20260901162134 | 86 | 84 | 3.0 | 7.0 | 0.00 | 0.83 | 0.01 | 83 | 1016.8 |
| 20260901161652 | 86 | 84 | 2.0 | 7.0 | 0.00 | 0.83 | 0.01 | 83 | 1016.8 |
| 20260901161228 | 86 | 84 | 2.0 | 6.0 | 0.00 | 0.83 | 0.01 | 83 | 1016.8 |
| 20260901160703 | 86 | 84 | 3.0 | 6.0 | 0.00 | 0.83 | 0.01 | 82 | 1016.8 |
| 20260901160159 | 86 | 84 | 3.0 | 6.0 | 0.00 | 0.83 | 0.01 | 83 | 1016.8 |
| 20260901155706 | 86 | 84 | 3.0 | 6.0 | 0.00 | 0.83 | 0.01 | 83 | 1016.8 |
| 20260901155223 | 86 | 84 | 2.0 | 4.0 | 0.00 | 0.83 | 0.01 | 83 | 1016.7 |
| 20260901154639 | 86 | 84 | 0.0 | 4.0 | 0.00 | 0.83 | 0.01 | 84 | 1016.8 |
| 20260901154136 | 86 | 84 | 1.0 | 4.0 | 0.00 | 0.83 | 0.01 | 84 | 1016.7 |
| 20260901153655 | 85 | 84 | 1.0 | 4.0 | 0.01 | 0.83 | 0.01 | 83 | 1016.6 |
| 20260901153231 | 85 | 84 | 1.0 | 4.0 | 0.01 | 0.83 | 0.01 | 83 | 1016.7 |
| 20260901152646 | 85 | 84 | 0.0 | 4.0 | 0.01 | 0.83 | 0.01 | 84 | 1016.8 |
| 20260901152146 | 85 | 84 | 2.0 | 4.0 | 0.01 | 0.83 | 0.01 | 84 | 1016.9 |
| 20260901151644 | 85 | 84 | 2.0 | 4.0 | 0.01 | 0.83 | 0.01 | 85 | 1016.9 |
| 20260901151242 | 85 | 84 | 3.0 | 4.0 | 0.01 | 0.83 | 0.01 | 85 | 1016.8 |
| 20260901150636 | 85 | 84 | 0.0 | 4.0 | 0.01 | 0.83 | 0.01 | 85 | 1016.9 |
| 20260901150155 | 85 | 84 | 2.0 | 6.0 | 0.01 | 0.84 | 0.01 | 85 | 1016.8 |
| 20260901145639 | 85 | 84 | 2.0 | 7.0 | 0.01 | 0.84 | 0.01 | 84 | 1016.8 |
| 20260901145157 | 86 | 84 | 3.0 | 6.0 | 0.01 | 0.84 | 0.01 | 83 | 1016.8 |
| 20260901144633 | 86 | 84 | 1.0 | 6.0 | 0.01 | 0.84 | 0.01 | 83 | 1016.7 |
| 20260901144151 | 86 | 84 | 2.0 | 5.0 | 0.01 | 0.84 | 0.01 | 82 | 1016.7 |
| 20260901143646 | 87 | 44 | 1.0 | 3.0 | 0.00 | 0.83 | 0.00 | 80 | 1016.7 |
| 20260901143204 | 87 | 44 | 2.0 | 3.0 | 0.00 | 0.83 | 0.00 | 81 | 1016.7 |
| 20260901142741 | 87 | 44 | 1.0 | 3.0 | 0.00 | 0.83 | 0.00 | 81 | 1016.6 |
| 20260901142136 | 87 | 43 | 0.0 | 4.0 | 0.00 | 0.83 | 0.00 | 82 | 1016.4 |
| 20260901141634 | 87 | 23 | 0.0 | 4.0 | 0.00 | 0.83 | 0.00 | 82 | 1016.4 |
| 20260901141212 | 86 | 332 | 0.0 | 3.0 | 0.00 | 0.83 | 0.00 | 83 | 1016.4 |
| 20260901140708 | 86 | 332 | 0.0 | 3.0 | 0.00 | 0.83 | 0.00 | 84 | 1016.3 |
| 20260901140143 | 86 | 332 | 1.0 | 4.0 | 0.00 | 0.83 | 0.00 | 83 | 1016.3 |
| 20260901135650 | 86 | 336 | 2.0 | 4.0 | 0.00 | 0.83 | 0.00 | 83 | 1016.2 |
| 20260901135206 | 86 | 336 | 1.0 | 3.0 | 0.00 | 0.83 | 0.00 | 84 | 1016.4 |
| 20260901134703 | 85 | 336 | 0.0 | 3.0 | 0.00 | 0.83 | 0.00 | 85 | 1016.3 |
| 20260901134219 | 85 | 336 | 0.0 | 5.0 | 0.00 | 0.83 | 0.00 | 86 | 1016.2 |
| 20260901133636 | 85 | 336 | 2.0 | 5.0 | 0.00 | 0.83 | 0.00 | 86 | 1016.2 |
| 20260901133135 | 84 | 336 | 3.0 | 5.0 | 0.00 | 0.83 | 0.00 | 88 | 1016.2 |
| 20260901132731 | 84 | 331 | 1.0 | 5.0 | 0.00 | 0.83 | 0.00 | 90 | 1016.2 |
| 20260901132220 | 84 | 100 | 0.0 | 0.0 | 0.00 | 0.83 | 0.00 | 91 | 1016.2 |
| 20260901132138 | 84 | 100 | 0.0 | 0.0 | 0.00 | 0.83 | 0.00 | 91 | 1016.2 |
| 20260901131639 | 83 | 100 | 0.0 | 0.0 | 0.00 | 0.83 | 0.00 | 92 | 1016.3 |
| 20260901131213 | 83 | 100 | 0.0 | 0.0 | 0.00 | 0.83 | 0.00 | 93 | 1016.3 |
| 20260901130708 | 83 | 100 | 0.0 | 0.0 | 0.00 | 0.83 | 0.00 | 95 | 1016.2 |
| 20260901130204 | 82 | 100 | 0.0 | 0.0 | 0.00 | 0.83 | 0.00 | 95 | 1016.2 |
| 20260901125731 | 82 | 100 | 0.0 | 0.0 | 0.00 | 0.83 | 0.00 | 96 | 1016.3 |
| 20260901125207 | 81 | 100 | 0.0 | 0.0 | 0.00 | 0.83 | 0.00 | 96 | 1016.1 |
| 20260901124642 | 81 | 100 | 0.0 | 0.0 | 0.00 | 0.83 | 0.00 | 96 | 1016.1 |
| 20260901124139 | 81 | 100 | 0.0 | 0.0 | 0.00 | 0.83 | 0.00 | 97 | 1016.2 |
| 20260901123737 | 80 | 100 | 0.0 | 0.0 | 0.00 | 0.83 | 0.00 | 97 | 1016.1 |
| 20260901123211 | 80 | 100 | 0.0 | 0.0 | 0.00 | 0.83 | 0.00 | 98 | 1016.2 |
| 20260901122706 | 80 | 100 | 0.0 | 0.0 | 0.00 | 0.83 | 0.00 | 97 | 1016.2 |
| 20260901122143 | 79 | 100 | 0.0 | 0.0 | 0.00 | 0.83 | 0.00 | 98 | 1016.1 |
| 20260901121641 | 79 | 100 | 0.0 | 0.0 | 0.00 | 0.83 | 0.00 | 98 | 1016.1 |
| 20260901121159 | 79 | 100 | 0.0 | 0.0 | 0.00 | 0.83 | 0.00 | 98 | 1016.0 |
| 20260901120636 | 79 | 103 | 0.0 | 0.0 | 0.00 | 0.83 | 0.00 | 98 | 1015.9 |
| 20260901120135 | 78 | 103 | 0.0 | 0.0 | 0.00 | 0.83 | 0.00 | 98 | 1016.0 |
| 20260901115703 | 78 | 103 | 0.0 | 0.0 | 0.00 | 0.83 | 0.00 | 98 | 1016.0 |
| 20260901115159 | 78 | 103 | 0.0 | 0.0 | 0.00 | 0.83 | 0.00 | 98 | 1015.9 |
| 20260901114636 | 78 | 103 | 0.0 | 0.0 | 0.00 | 0.83 | 0.00 | 98 | 1015.8 |
| 20260901114233 | 78 | 103 | 0.0 | 0.0 | 0.00 | 0.83 | 0.00 | 98 | 1015.8 |
| 20260901113709 | 78 | 103 | 0.0 | 0.0 | 0.00 | 0.83 | 0.00 | 98 | 1015.7 |
| 20260901113225 | 78 | 103 | 0.0 | 0.0 | 0.00 | 0.83 | 0.00 | 98 | 1015.8 |
| 20260901112701 | 78 | 103 | 0.0 | 0.0 | 0.00 | 0.83 | 0.00 | 98 | 1015.7 |
| 20260901112158 | 78 | 103 | 0.0 | 0.0 | 0.00 | 0.83 | 0.00 | 97 | 1015.5 |
| 20260901111735 | 78 | 103 | 0.0 | 0.0 | 0.00 | 0.83 | 0.00 | 97 | 1015.4 |
| 20260901111632 | 78 | 103 | 0.0 | 0.0 | 0.00 | 0.83 | 0.00 | 97 | 1015.4 |
| 20260901111150 | 78 | 103 | 0.0 | 0.0 | 0.00 | 0.83 | 0.00 | 97 | 1015.4 |
| 20260901110701 | 78 | 103 | 0.0 | 0.0 | 0.00 | 0.83 | 0.00 | 97 | 1015.3 |
| 20260901110157 | 78 | 103 | 0.0 | 0.0 | 0.00 | 0.83 | 0.00 | 97 | 1015.3 |
| 20260901105742 | 78 | 103 | 0.0 | 0.0 | 0.00 | 0.83 | 0.00 | 97 | 1015.2 |
| 20260901105135 | 78 | 103 | 0.0 | 0.0 | 0.00 | 0.83 | 0.00 | 97 | 1015.2 |
| 20260901104633 | 78 | 103 | 0.0 | 0.0 | 0.00 | 0.83 | 0.00 | 97 | 1015.3 |
| 20260901104210 | 78 | 103 | 0.0 | 0.0 | 0.00 | 0.83 | 0.00 | 97 | 1015.2 |
| 20260901103646 | 78 | 103 | 0.0 | 0.0 | 0.00 | 0.83 | 0.00 | 97 | 1015.2 |
| 20260901103205 | 78 | 103 | 0.0 | 0.0 | 0.00 | 0.83 | 0.00 | 97 | 1015.2 |
| 20260901102701 | 78 | 103 | 0.0 | 0.0 | 0.00 | 0.83 | 0.00 | 97 | 1015.2 |
| 20260901102137 | 78 | 103 | 0.0 | 0.0 | 0.00 | 0.83 | 0.00 | 97 | 1015.0 |
| 20260901101655 | 78 | 103 | 0.0 | 0.0 | 0.00 | 0.83 | 0.00 | 97 | 1015.0 |
| 20260901101132 | 78 | 103 | 0.0 | 0.0 | 0.00 | 0.83 | 0.00 | 97 | 1014.9 |
| 20260901100729 | 78 | 103 | 0.0 | 0.0 | 0.00 | 0.83 | 0.00 | 97 | 1015.0 |
| 20260901100142 | 78 | 103 | 0.0 | 0.0 | 0.00 | 0.83 | 0.00 | 97 | 1015.0 |
| 20260901095729 | 78 | 103 | 0.0 | 0.0 | 0.00 | 0.83 | 0.00 | 97 | 1015.0 |
| 20260901095646 | 78 | 103 | 0.0 | 0.0 | 0.00 | 0.83 | 0.00 | 97 | 1015.0 |
| 20260901095205 | 78 | 103 | 0.0 | 0.0 | 0.00 | 0.83 | 0.00 | 97 | 1015.0 |
| 20260901094701 | 78 | 103 | 0.0 | 0.0 | 0.00 | 0.83 | 0.00 | 97 | 1015.0 |
| 20260901094157 | 78 | 103 | 0.0 | 0.0 | 0.00 | 0.83 | 0.00 | 97 | 1014.9 |
| 20260901093635 | 78 | 103 | 0.0 | 0.0 | 0.00 | 0.83 | 0.00 | 97 | 1014.9 |
| 20260901093153 | 78 | 103 | 0.0 | 0.0 | 0.00 | 0.83 | 0.00 | 97 | 1014.9 |
| 20260901092630 | 78 | 103 | 0.0 | 0.0 | 0.00 | 0.83 | 0.00 | 97 | 1014.8 |
| 20260901092146 | 78 | 103 | 0.0 | 0.0 | 0.00 | 0.83 | 0.00 | 97 | 1014.7 |
| 20260901091643 | 78 | 103 | 0.0 | 0.0 | 0.00 | 0.83 | 0.00 | 97 | 1014.8 |
| 20260901091159 | 78 | 103 | 0.0 | 0.0 | 0.00 | 0.83 | 0.00 | 97 | 1014.7 |
| 20260901090636 | 78 | 103 | 0.0 | 0.0 | 0.00 | 0.83 | 0.00 | 97 | 1014.8 |
| 20260901090131 | 78 | 103 | 0.0 | 0.0 | 0.00 | 0.83 | 0.00 | 97 | 1014.9 |
| 20260901085719 | 78 | 103 | 0.0 | 0.0 | 0.00 | 0.83 | 0.00 | 97 | 1014.9 |
| 20260901085135 | 78 | 103 | 0.0 | 0.0 | 0.00 | 0.83 | 0.00 | 97 | 1015.0 |
| 20260901084653 | 78 | 103 | 0.0 | 0.0 | 0.00 | 0.83 | 0.00 | 97 | 1014.9 |
| 20260901084250 | 78 | 103 | 0.0 | 0.0 | 0.00 | 0.83 | 0.00 | 97 | 1014.9 |
| 20260901083725 | 78 | 103 | 0.0 | 0.0 | 0.00 | 0.83 | 0.00 | 97 | 1014.9 |
| 20260901083220 | 78 | 103 | 0.0 | 0.0 | 0.00 | 0.83 | 0.00 | 97 | 1015.0 |
| 20260901082635 | 78 | 103 | 0.0 | 0.0 | 0.00 | 0.83 | 0.00 | 97 | 1015.1 |
| 20260901082134 | 78 | 103 | 0.0 | 0.0 | 0.00 | 0.83 | 0.00 | 97 | 1015.0 |
| 20260901081651 | 78 | 103 | 0.0 | 0.0 | 0.00 | 0.83 | 0.00 | 97 | 1015.0 |
| 20260901081147 | 78 | 103 | 0.0 | 0.0 | 0.00 | 0.83 | 0.00 | 97 | 1015.0 |
| 20260901080644 | 78 | 103 | 0.0 | 0.0 | 0.00 | 0.83 | 0.00 | 97 | 1015.0 |
| 20260901080201 | 78 | 103 | 0.0 | 0.0 | 0.00 | 0.83 | 0.00 | 97 | 1015.0 |
| 20260901075629 | 78 | 103 | 0.0 | 0.0 | 0.00 | 0.83 | 0.00 | 97 | 1015.0 |
| 20260901075206 | 78 | 103 | 0.0 | 0.0 | 0.00 | 0.83 | 0.00 | 97 | 1015.1 |
| 20260901074645 | 78 | 103 | 0.0 | 0.0 | 0.00 | 0.83 | 0.00 | 97 | 1015.1 |
| 20260901074141 | 78 | 103 | 0.0 | 0.0 | 0.00 | 0.83 | 0.00 | 97 | 1015.1 |
| 20260901073719 | 78 | 103 | 0.0 | 0.0 | 0.00 | 0.83 | 0.00 | 97 | 1015.3 |
| 20260901073155 | 78 | 103 | 0.0 | 0.0 | 0.00 | 0.83 | 0.00 | 97 | 1015.3 |
| 20260901072712 | 79 | 103 | 0.0 | 0.0 | 0.00 | 0.83 | 0.00 | 97 | 1015.3 |
| 20260901072630 | 79 | 103 | 0.0 | 0.0 | 0.00 | 0.83 | 0.00 | 97 | 1015.3 |
| 20260901072228 | 79 | 103 | 0.0 | 0.0 | 0.00 | 0.83 | 0.00 | 97 | 1015.2 |
| 20260901071644 | 79 | 103 | 0.0 | 0.0 | 0.00 | 0.83 | 0.00 | 97 | 1015.3 |
| 20260901071141 | 79 | 103 | 0.0 | 0.0 | 0.00 | 0.83 | 0.00 | 97 | 1015.4 |
| 20260901070638 | 79 | 103 | 0.0 | 0.0 | 0.00 | 0.83 | 0.00 | 97 | 1015.3 |
| 20260901070135 | 79 | 103 | 0.0 | 0.0 | 0.00 | 0.83 | 0.00 | 97 | 1015.3 |
| 20260901065723 | 79 | 103 | 0.0 | 0.0 | 0.00 | 0.83 | 0.00 | 97 | 1015.4 |
| 20260901065137 | 79 | 103 | 0.0 | 0.0 | 0.00 | 0.83 | 0.00 | 97 | 1015.4 |
| 20260901064715 | 79 | 103 | 0.0 | 0.0 | 0.00 | 0.83 | 0.00 | 97 | 1015.3 |
| 20260901064151 | 79 | 103 | 0.0 | 0.0 | 0.00 | 0.83 | 0.00 | 97 | 1015.3 |
| 20260901063744 | 79 | 103 | 0.0 | 0.0 | 0.00 | 0.83 | 0.00 | 97 | 1015.3 |
| 20260901063159 | 79 | 103 | 0.0 | 0.0 | 0.00 | 0.83 | 0.00 | 97 | 1015.5 |
| 20260901062655 | 79 | 103 | 0.0 | 0.0 | 0.00 | 0.83 | 0.00 | 96 | 1015.4 |
| 20260901062232 | 78 | 103 | 0.0 | 0.0 | 0.00 | 0.83 | 0.00 | 97 | 1015.4 |
| 20260901062150 | 78 | 103 | 0.0 | 0.0 | 0.00 | 0.83 | 0.00 | 97 | 1015.4 |
| 20260901061628 | 78 | 103 | 0.0 | 0.0 | 0.00 | 0.83 | 0.00 | 96 | 1015.6 |
| 20260901061226 | 79 | 103 | 0.0 | 0.0 | 0.00 | 0.83 | 0.00 | 96 | 1015.5 |
| 20260901060641 | 78 | 103 | 0.0 | 0.0 | 0.00 | 0.83 | 0.00 | 96 | 1015.5 |
| 20260901060158 | 78 | 103 | 0.0 | 0.0 | 0.00 | 0.83 | 0.00 | 96 | 1015.5 |
| 20260901055645 | 78 | 103 | 0.0 | 0.0 | 0.00 | 0.83 | 0.00 | 96 | 1015.6 |
| 20260901055144 | 78 | 103 | 0.0 | 0.0 | 0.00 | 0.83 | 0.00 | 96 | 1015.7 |
| 20260901054641 | 78 | 103 | 0.0 | 0.0 | 0.00 | 0.83 | 0.00 | 96 | 1015.8 |
| 20260901054140 | 78 | 103 | 0.0 | 0.0 | 0.00 | 0.83 | 0.00 | 96 | 1015.7 |
| 20260901053719 | 78 | 103 | 0.0 | 0.0 | 0.00 | 0.83 | 0.00 | 96 | 1015.7 |
| 20260901053133 | 78 | 103 | 0.0 | 0.0 | 0.00 | 0.83 | 0.00 | 96 | 1015.7 |
| 20260901052651 | 78 | 103 | 0.0 | 0.0 | 0.00 | 0.83 | 0.00 | 96 | 1015.8 |
| 20260901052207 | 78 | 103 | 0.0 | 0.0 | 0.00 | 0.83 | 0.00 | 96 | 1015.9 |
| 20260901051645 | 78 | 103 | 0.0 | 0.0 | 0.00 | 0.83 | 0.00 | 95 | 1015.8 |
| 20260901051141 | 78 | 103 | 0.0 | 0.0 | 0.00 | 0.83 | 0.00 | 96 | 1015.9 |
| 20260901050718 | 78 | 103 | 0.0 | 0.0 | 0.00 | 0.83 | 0.00 | 95 | 1015.9 |
| 20260901050152 | 79 | 103 | 0.0 | 0.0 | 0.00 | 0.83 | 0.00 | 96 | 1016.1 |
| 20260901045740 | 78 | 103 | 0.0 | 0.0 | 0.00 | 0.83 | 0.00 | 96 | 1016.1 |
| 20260901045134 | 78 | 103 | 0.0 | 0.0 | 0.00 | 0.83 | 0.00 | 95 | 1016.1 |
| 20260901044632 | 78 | 103 | 0.0 | 0.0 | 0.00 | 0.83 | 0.00 | 95 | 1016.2 |
| 20260901044131 | 78 | 103 | 0.0 | 0.0 | 0.00 | 0.83 | 0.00 | 95 | 1016.2 |
| 20260901043629 | 78 | 103 | 0.0 | 0.0 | 0.00 | 0.83 | 0.00 | 95 | 1016.3 |
| 20260901043147 | 78 | 103 | 0.0 | 0.0 | 0.00 | 0.83 | 0.00 | 95 | 1016.4 |
| 20260901042706 | 79 | 103 | 0.0 | 0.0 | 0.00 | 0.83 | 0.00 | 95 | 1016.4 |
| 20260901042143 | 79 | 103 | 0.0 | 0.0 | 0.00 | 0.83 | 0.00 | 95 | 1016.6 |
| 20260901041719 | 79 | 103 | 0.0 | 0.0 | 0.01 | 0.83 | 0.00 | 95 | 1016.6 |
| 20260901041132 | 79 | 103 | 0.0 | 0.0 | 0.02 | 0.83 | 0.00 | 95 | 1016.6 |
| 20260901040629 | 79 | 103 | 0.0 | 0.0 | 0.07 | 0.83 | 0.00 | 95 | 1016.6 |
| 20260901040205 | 79 | 103 | 0.0 | 0.0 | 0.11 | 0.83 | 0.83 | 95 | 1016.7 |
| 20260901035653 | 79 | 103 | 0.0 | 0.0 | 0.12 | 0.83 | 0.83 | 95 | 1016.8 |
| 20260901035149 | 78 | 103 | 0.0 | 0.0 | 0.22 | 0.83 | 0.83 | 95 | 1016.8 |
| 20260901034648 | 78 | 103 | 0.0 | 0.0 | 0.38 | 0.83 | 0.83 | 95 | 1016.8 |
| 20260901034206 | 78 | 103 | 0.0 | 0.0 | 0.50 | 0.83 | 0.83 | 95 | 1017.1 |
| 20260901033703 | 78 | 103 | 0.0 | 0.0 | 0.63 | 0.83 | 0.83 | 94 | 1017.0 |
| 20260901033220 | 78 | 103 | 0.0 | 0.0 | 0.75 | 0.83 | 0.83 | 94 | 1017.0 |
| 20260901032714 | 77 | 103 | 0.0 | 0.0 | 0.78 | 0.83 | 0.83 | 94 | 1017.0 |
| 20260901032150 | 77 | 103 | 0.0 | 0.0 | 0.78 | 0.83 | 0.83 | 93 | 1017.1 |
| 20260901031646 | 77 | 103 | 0.0 | 0.0 | 0.77 | 0.82 | 0.82 | 92 | 1017.3 |
| 20260901031203 | 77 | 103 | 0.0 | 0.0 | 0.76 | 0.81 | 0.81 | 92 | 1017.4 |
| 20260901030637 | 77 | 103 | 0.0 | 3.0 | 0.70 | 0.75 | 0.76 | 92 | 1017.4 |
| 20260901030212 | 78 | 103 | 1.0 | 12.0 | 0.67 | 0.72 | 0.72 | 92 | 1017.5 |
| 20260901025639 | 78 | 103 | 0.0 | 13.0 | 0.67 | 0.71 | 0.71 | 92 | 1017.6 |
| 20260901025135 | 78 | 121 | 8.0 | 13.0 | 0.56 | 0.60 | 0.61 | 91 | 1017.4 |
| 20260901024733 | 79 | 111 | 7.0 | 13.0 | 0.43 | 0.45 | 0.45 | 92 | 1017.6 |
| 20260901024629 | 79 | 111 | 7.0 | 13.0 | 0.43 | 0.45 | 0.45 | 92 | 1017.6 |
| 20260901024227 | 79 | 131 | 6.0 | 12.0 | 0.31 | 0.32 | 0.32 | 91 | 1017.7 |
| 20260901023704 | 80 | 100 | 8.0 | 12.0 | 0.18 | 0.19 | 0.19 | 90 | 1017.7 |
| 20260901023140 | 81 | 103 | 3.0 | 7.0 | 0.07 | 0.08 | 0.08 | 91 | 1017.7 |
| 20260901022638 | 81 | 112 | 2.0 | 7.0 | 0.04 | 0.05 | 0.05 | 92 | 1017.6 |
| 20260901022217 | 81 | 86 | 1.0 | 3.0 | 0.04 | 0.05 | 0.05 | 91 | 1017.4 |
| 20260901021652 | 81 | 86 | 0.0 | 0.0 | 0.04 | 0.05 | 0.05 | 90 | 1017.3 |
| 20260901021128 | 81 | 86 | 0.0 | 0.0 | 0.04 | 0.05 | 0.05 | 89 | 1017.2 |
| 20260901020704 | 81 | 86 | 0.0 | 0.0 | 0.04 | 0.05 | 0.05 | 89 | 1017.0 |
| 20260901020141 | 81 | 86 | 0.0 | 0.0 | 0.04 | 0.05 | 0.05 | 88 | 1016.9 |
| 20260901015628 | 81 | 86 | 0.0 | 8.0 | 0.03 | 0.04 | 0.04 | 87 | 1016.9 |
| 20260901015146 | 82 | 86 | 2.0 | 9.0 | 0.03 | 0.04 | 0.04 | 86 | 1016.8 |
| 20260901014723 | 83 | 105 | 6.0 | 9.0 | 0.01 | 0.02 | 0.02 | 86 | 1016.8 |
| 20260901014641 | 83 | 105 | 6.0 | 9.0 | 0.01 | 0.02 | 0.02 | 86 | 1016.8 |
| 20260901014220 | 84 | 100 | 5.0 | 9.0 | 0.00 | 0.01 | 0.01 | 86 | 1016.7 |
| 20260901013713 | 84 | 346 | 2.0 | 4.0 | 0.00 | 0.01 | 0.01 | 85 | 1016.7 |
| 20260901013134 | 84 | 337 | 2.0 | 3.0 | 0.00 | 0.01 | 0.01 | 85 | 1016.8 |
| 20260901012631 | 84 | 336 | 0.0 | 5.0 | 0.00 | 0.01 | 0.01 | 85 | 1016.6 |
| 20260901012129 | 84 | 355 | 2.0 | 5.0 | 0.00 | 0.01 | 0.01 | 84 | 1016.6 |
| 20260901011726 | 84 | 88 | 0.0 | 0.0 | 0.00 | 0.01 | 0.01 | 84 | 1016.4 |
| 20260901011141 | 84 | 88 | 0.0 | 0.0 | 0.00 | 0.01 | 0.01 | 84 | 1016.4 |
| 20260901010714 | 84 | 88 | 0.0 | 0.0 | 0.00 | 0.01 | 0.01 | 84 | 1016.4 |
| 20260901010135 | 84 | 88 | 0.0 | 0.0 | 0.00 | 0.01 | 0.01 | 84 | 1016.2 |
| 20260901005644 | 84 | 88 | 0.0 | 0.0 | 0.00 | 0.01 | 0.01 | 85 | 1016.3 |
| 20260901005217 | 84 | 88 | 0.0 | 0.0 | 0.00 | 0.01 | 0.01 | 85 | 1016.3 |
| 20260901004638 | 84 | 88 | 0.0 | 1.0 | 0.00 | 0.01 | 0.01 | 85 | 1016.2 |
| 20260901004136 | 84 | 88 | 0.0 | 3.0 | 0.00 | 0.01 | 0.01 | 85 | 1016.1 |
| 20260901003634 | 85 | 88 | 1.0 | 3.0 | 0.00 | 0.01 | 0.01 | 85 | 1016.2 |
| 20260901003152 | 85 | 88 | 2.0 | 4.0 | 0.00 | 0.01 | 0.01 | 84 | 1016.1 |
| 20260901002648 | 85 | 88 | 0.0 | 4.0 | 0.00 | 0.01 | 0.01 | 84 | 1016.2 |
| 20260901002225 | 85 | 88 | 2.0 | 4.0 | 0.00 | 0.01 | 0.01 | 84 | 1016.1 |
| 20260901001642 | 85 | 38 | 1.0 | 4.0 | 0.00 | 0.01 | 0.01 | 84 | 1016.1 |
| 20260901001200 | 85 | 42 | 1.0 | 5.0 | 0.00 | 0.01 | 0.01 | 84 | 1016.1 |
| 20260901000637 | 85 | 65 | 1.0 | 5.0 | 0.00 | 0.01 | 0.01 | 84 | 1016.1 |
| 20260901000218 | 85 | 40 | 2.0 | 5.0 | 0.00 | 0.04 | 0.01 | 84 | 1016.0 |
| 20260901000133 | 85 | 40 | 2.0 | 5.0 | 0.00 | 0.04 | 0.01 | 84 | 1016.0 |
| 20260831235718 | 85 | 41 | 2.0 | 5.0 | 0.00 | 0.04 | 0.01 | 84 | 1016.0 |
| 20260831235636 | 85 | 41 | 2.0 | 5.0 | 0.00 | 0.04 | 0.01 | 84 | 1016.0 |
| 20260831235139 | 84 | 77 | 2.0 | 5.0 | 0.00 | 0.04 | 0.01 | 84 | 1016.1 |
| 20260831234658 | 84 | 77 | 2.0 | 5.0 | 0.00 | 0.04 | 0.01 | 84 | 1015.9 |
| 20260831234132 | 84 | 77 | 1.0 | 5.0 | 0.00 | 0.04 | 0.01 | 84 | 1015.8 |
| 20260831233629 | 84 | 77 | 1.0 | 5.0 | 0.00 | 0.04 | 0.01 | 85 | 1015.7 |
| 20260831233206 | 84 | 77 | 1.0 | 4.0 | 0.00 | 0.04 | 0.01 | 85 | 1015.6 |
| 20260831232643 | 84 | 77 | 1.0 | 4.0 | 0.00 | 0.04 | 0.01 | 85 | 1015.5 |
| 20260831232141 | 84 | 77 | 2.0 | 4.0 | 0.00 | 0.04 | 0.01 | 85 | 1015.7 |
| 20260831231720 | 84 | 77 | 2.0 | 5.0 | 0.00 | 0.04 | 0.01 | 85 | 1015.7 |
| 20260831231155 | 84 | 77 | 3.0 | 5.0 | 0.00 | 0.04 | 0.01 | 84 | 1015.6 |
| 20260831230632 | 84 | 79 | 3.0 | 7.0 | 0.00 | 0.04 | 0.01 | 84 | 1015.7 |
| 20260831230129 | 84 | 114 | 4.0 | 9.0 | 0.00 | 2.02 | 0.01 | 84 | 1015.7 |
| 20260831225715 | 85 | 73 | 2.0 | 5.0 | 0.00 | 2.02 | 0.01 | 85 | 1015.7 |
| 20260831225130 | 85 | 15 | 2.0 | 6.0 | 0.00 | 2.02 | 0.01 | 85 | 1015.8 |
| 20260831224646 | 85 | 355 | 3.0 | 6.0 | 0.00 | 2.02 | 0.01 | 85 | 1015.8 |
| 20260831224143 | 85 | 17 | 3.0 | 5.0 | 0.00 | 2.02 | 0.01 | 85 | 1015.7 |
| 20260831223640 | 85 | 19 | 2.0 | 5.0 | 0.00 | 2.02 | 0.01 | 85 | 1015.7 |
| 20260831223138 | 85 | 17 | 3.0 | 5.0 | 0.00 | 2.02 | 0.01 | 85 | 1015.6 |
| 20260831222637 | 85 | 38 | 2.0 | 7.0 | 0.00 | 2.02 | 0.01 | 85 | 1015.8 |
| 20260831222216 | 85 | 38 | 3.0 | 7.0 | 0.00 | 2.02 | 0.01 | 84 | 1015.8 |
| 20260831221632 | 85 | 38 | 3.0 | 6.0 | 0.00 | 2.02 | 0.01 | 84 | 1015.8 |
| 20260831221148 | 85 | 14 | 2.0 | 6.0 | 0.00 | 2.02 | 0.01 | 84 | 1015.8 |
| 20260831220645 | 86 | 360 | 3.0 | 7.0 | 0.00 | 2.02 | 0.01 | 83 | 1015.7 |
| 20260831220204 | 86 | 345 | 3.0 | 8.0 | 0.00 | 2.02 | 0.01 | 82 | 1015.8 |
| 20260831215652 | 86 | 348 | 3.0 | 6.0 | 0.00 | 2.02 | 0.01 | 82 | 1015.6 |
| 20260831215229 | 86 | 9 | 2.0 | 6.0 | 0.00 | 2.02 | 0.01 | 82 | 1015.8 |
| 20260831214647 | 86 | 345 | 3.0 | 6.0 | 0.00 | 2.02 | 0.01 | 82 | 1015.8 |
| 20260831214145 | 86 | 109 | 0.0 | 3.0 | 0.00 | 2.02 | 0.01 | 82 | 1016.0 |
| 20260831213644 | 86 | 109 | 0.0 | 8.0 | 0.00 | 2.02 | 0.01 | 82 | 1016.0 |
| 20260831213140 | 86 | 355 | 3.0 | 8.0 | 0.00 | 2.02 | 0.01 | 81 | 1016.0 |
| 20260831212656 | 87 | 87 | 3.0 | 8.0 | 0.00 | 2.02 | 0.01 | 81 | 1016.0 |
| 20260831212233 | 87 | 110 | 4.0 | 8.0 | 0.00 | 2.02 | 0.01 | 81 | 1015.9 |
| 20260831211647 | 87 | 26 | 3.0 | 7.0 | 0.00 | 2.02 | 0.01 | 80 | 1015.9 |
| 20260831211205 | 87 | 53 | 3.0 | 9.0 | 0.00 | 2.02 | 0.01 | 80 | 1016.1 |
| 20260831210641 | 87 | 91 | 4.0 | 9.0 | 0.00 | 2.02 | 0.01 | 79 | 1016.1 |
| 20260831210139 | 88 | 85 | 5.0 | 8.0 | 0.00 | 2.02 | 0.01 | 78 | 1015.9 |
| 20260831205748 | 88 | 69 | 3.0 | 11.0 | 0.00 | 2.02 | 0.01 | 77 | 1016.1 |
| 20260831205706 | 88 | 69 | 3.0 | 11.0 | 0.00 | 2.02 | 0.01 | 77 | 1016.1 |
| 20260831205143 | 89 | 109 | 2.0 | 11.0 | 0.00 | 2.02 | 0.01 | 77 | 1016.1 |
| 20260831204642 | 89 | 95 | 5.0 | 11.0 | 0.00 | 2.02 | 0.01 | 77 | 1015.8 |
| 20260831204201 | 88 | 106 | 6.0 | 11.0 | 0.00 | 2.02 | 0.01 | 77 | 1015.9 |
| 20260831203659 | 88 | 98 | 4.0 | 10.0 | 0.00 | 2.02 | 0.01 | 77 | 1016.0 |
| 20260831203235 | 89 | 24 | 4.0 | 11.0 | 0.00 | 2.02 | 0.01 | 77 | 1015.9 |
| 20260831203132 | 89 | 24 | 4.0 | 11.0 | 0.00 | 2.02 | 0.01 | 77 | 1015.9 |
| 20260831202628 | 88 | 88 | 5.0 | 12.0 | 0.00 | 2.02 | 0.01 | 78 | 1015.7 |
| 20260831202146 | 88 | 36 | 6.0 | 12.0 | 0.00 | 2.02 | 0.01 | 79 | 1015.8 |
| 20260831201702 | 89 | 84 | 5.0 | 11.0 | 0.00 | 2.02 | 0.01 | 77 | 1015.7 |
| 20260831201139 | 89 | 104 | 3.0 | 10.0 | 0.00 | 2.02 | 0.01 | 77 | 1015.8 |
| 20260831200636 | 89 | 31 | 5.0 | 11.0 | 0.00 | 2.02 | 0.01 | 78 | 1015.8 |
| 20260831200153 | 89 | 100 | 5.0 | 12.0 | 0.00 | 2.02 | 0.01 | 77 | 1015.7 |
| 20260831195740 | 89 | 100 | 7.0 | 12.0 | 0.00 | 2.02 | 0.01 | 76 | 1015.5 |
| 20260831195636 | 89 | 100 | 7.0 | 12.0 | 0.00 | 2.02 | 0.01 | 76 | 1015.5 |
| 20260831195133 | 89 | 80 | 7.0 | 12.0 | 0.00 | 2.02 | 0.01 | 77 | 1015.5 |
| 20260831194710 | 89 | 117 | 6.0 | 10.0 | 0.00 | 2.02 | 0.01 | 76 | 1015.5 |
| 20260831194628 | 89 | 117 | 6.0 | 10.0 | 0.00 | 2.02 | 0.01 | 76 | 1015.5 |
| 20260831194242 | 89 | 76 | 6.0 | 12.0 | 0.00 | 2.02 | 0.01 | 75 | 1015.7 |
| 20260831194139 | 89 | 76 | 6.0 | 12.0 | 0.00 | 2.02 | 0.01 | 75 | 1015.7 |
| 20260831193716 | 89 | 96 | 7.0 | 10.0 | 0.00 | 2.02 | 0.01 | 74 | 1015.7 |
| 20260831193132 | 89 | 80 | 5.0 | 12.0 | 0.00 | 2.02 | 0.01 | 74 | 1015.7 |
| 20260831192629 | 89 | 107 | 7.0 | 12.0 | 0.00 | 2.02 | 0.01 | 72 | 1015.9 |
| 20260831192247 | 89 | 113 | 6.0 | 11.0 | 0.00 | 2.02 | 0.01 | 73 | 1016.2 |
| 20260831191641 | 89 | 101 | 6.0 | 11.0 | 0.00 | 2.02 | 0.01 | 73 | 1016.1 |
| 20260831191139 | 89 | 86 | 5.0 | 9.0 | 0.00 | 2.02 | 0.01 | 73 | 1016.0 |
| 20260831190636 | 89 | 81 | 4.0 | 11.0 | 0.00 | 2.02 | 0.01 | 74 | 1015.9 |
| 20260831190233 | 89 | 108 | 6.0 | 11.0 | 0.00 | 2.02 | 0.01 | 73 | 1015.8 |
| 20260831190130 | 89 | 108 | 6.0 | 11.0 | 0.00 | 2.02 | 0.01 | 73 | 1015.8 |
| 20260831185659 | 89 | 108 | 4.0 | 10.0 | 0.00 | 2.02 | 0.01 | 74 | 1015.8 |
| 20260831185216 | 89 | 80 | 5.0 | 10.0 | 0.00 | 2.02 | 0.01 | 74 | 1016.1 |
| 20260831184630 | 89 | 158 | 5.0 | 10.0 | 0.00 | 2.02 | 0.01 | 74 | 1016.2 |
| 20260831184208 | 89 | 115 | 5.0 | 11.0 | 0.00 | 2.02 | 0.01 | 73 | 1016.3 |
| 20260831183643 | 89 | 98 | 5.0 | 11.0 | 0.00 | 2.02 | 0.01 | 73 | 1016.5 |
| 20260831183220 | 89 | 125 | 7.0 | 11.0 | 0.00 | 2.02 | 0.01 | 73 | 1016.6 |
| 20260831182636 | 89 | 131 | 8.0 | 11.0 | 0.00 | 2.02 | 0.01 | 72 | 1016.5 |
| 20260831182215 | 89 | 104 | 6.0 | 10.0 | 0.00 | 2.02 | 0.01 | 72 | 1016.7 |
| 20260831181632 | 89 | 80 | 5.0 | 9.0 | 0.00 | 2.02 | 0.01 | 73 | 1016.7 |
| 20260831181130 | 89 | 115 | 4.0 | 10.0 | 0.00 | 2.02 | 0.01 | 74 | 1016.8 |
| 20260831180648 | 89 | 101 | 5.0 | 10.0 | 0.00 | 2.02 | 0.01 | 73 | 1016.8 |
| 20260831180225 | 89 | 107 | 5.0 | 9.0 | 0.00 | 2.02 | 0.01 | 73 | 1017.0 |
| 20260831175630 | 89 | 119 | 4.0 | 8.0 | 0.00 | 2.02 | 0.01 | 75 | 1016.9 |
| 20260831175207 | 89 | 123 | 5.0 | 8.0 | 0.00 | 2.02 | 0.01 | 74 | 1016.9 |
| 20260831174704 | 89 | 106 | 4.0 | 9.0 | 0.00 | 2.02 | 0.01 | 75 | 1016.9 |
| 20260831174141 | 88 | 91 | 4.0 | 9.0 | 0.00 | 2.02 | 0.01 | 76 | 1017.0 |
| 20260831173659 | 89 | 88 | 6.0 | 9.0 | 0.00 | 2.02 | 0.01 | 75 | 1017.0 |
| 20260831173136 | 88 | 97 | 6.0 | 10.0 | 0.00 | 2.02 | 0.01 | 75 | 1016.9 |
| 20260831172634 | 88 | 89 | 5.0 | 10.0 | 0.00 | 2.02 | 0.01 | 77 | 1016.9 |
| 20260831172152 | 88 | 134 | 4.0 | 9.0 | 0.00 | 2.02 | 0.01 | 76 | 1016.9 |
| 20260831171748 | 88 | 81 | 4.0 | 9.0 | 0.00 | 2.02 | 0.01 | 76 | 1016.9 |
| 20260831171203 | 88 | 105 | 2.0 | 8.0 | 0.00 | 2.02 | 0.01 | 78 | 1016.9 |
| 20260831170640 | 88 | 146 | 3.0 | 7.0 | 0.00 | 2.02 | 0.01 | 79 | 1016.8 |
| 20260831170219 | 87 | 147 | 3.0 | 7.0 | 0.00 | 2.02 | 0.01 | 78 | 1016.9 |
| 20260831170137 | 87 | 147 | 3.0 | 7.0 | 0.00 | 2.02 | 0.01 | 78 | 1016.9 |
| 20260831165724 | 87 | 103 | 3.0 | 7.0 | 0.00 | 2.02 | 0.01 | 79 | 1016.9 |
| 20260831165158 | 87 | 97 | 4.0 | 6.0 | 0.00 | 2.02 | 0.01 | 79 | 1017.0 |
| 20260831164714 | 87 | 124 | 1.0 | 6.0 | 0.00 | 2.02 | 0.01 | 80 | 1017.0 |
| 20260831164632 | 87 | 124 | 1.0 | 6.0 | 0.00 | 2.02 | 0.01 | 80 | 1017.0 |
| 20260831164244 | 86 | 124 | 1.0 | 6.0 | 0.00 | 2.02 | 0.01 | 80 | 1017.1 |
| 20260831164141 | 86 | 124 | 1.0 | 6.0 | 0.00 | 2.02 | 0.01 | 80 | 1017.1 |
| 20260831163642 | 86 | 124 | 3.0 | 6.0 | 0.00 | 2.02 | 0.01 | 81 | 1017.1 |
| 20260831163153 | 86 | 124 | 0.0 | 4.0 | 0.00 | 2.02 | 0.01 | 82 | 1017.1 |